Change the Weather History Date:

Saturday, May 12, 2012

  Actual Average Record
Temperature  
Mean Temperature 66 °F 67 °F  
Max Temperature 73 °F 77 °F 92 °F (1936)
Min Temperature 61 °F 57 °F 37 °F (1940)
Cooling Degree Days 2 3  
Month to date cooling degree days 31  
Year to date cooling degree days 70  
Growing Degree Days 16 (Base 50)    
Moisture  
Dew Point 57 °F    
Average Humidity 73    
Maximum Humidity 84    
Minimum Humidity 54    
Precipitation  
Precipitation 0.00 in 0.13 in 4.00 in (1942)
Month to date precipitation 1.53  
Year to date precipitation 20.41  
Sea Level Pressure  
Sea Level Pressure 30.25 in    
Wind  
Wind Speed 7 mph (East)    
Max Wind Speed 10 mph    
Max Gust Speed -    
Visibility 10 miles    
Events Rain    
T = Trace of Precipitation, MM = Missing Value Source: NWS Daily Summary

Daily Weather History Graph

Daily Weather History Graph

Search for Another Location

Airport or City:

Trip Planner

Search our weather history database for the weather conditions in past years. The results will help you decide how hot, cold, wet, or windy it might be!

Date:

Astronomy

May. 12, 2012 Rise Set
Actual Time 6:35 AM EDT 8:28 PM EDT
Civil Twilight 6:07 AM EDT 8:56 PM EDT
Nautical Twilight 5:34 AM EDT 9:29 PM EDT
Astronomical Twilight 4:58 AM EDT 10:05 PM EDT
Moon 1:47 AM EDT (5/12) 1:06 PM EDT (5/12)
Length of Visible Light 14h 48m
Length of Day
13h 53m
Waning Gibbous, 53% of the Moon is Illuminated
May 12
Waning Gibbous
May 12
Last Quarter
May 20
New
May 28
First Quarter
Jun 4
Full

Hourly Weather History & Observations

Time (EDT) Temp. Dew Point Humidity Pressure Visibility Wind Dir Wind Speed Gust Speed Precip Events Conditions
12:53 AM 64.0 °F 46.9 °F 54% 30.19 in 10.0 mi East 8.1 mph - N/A   Scattered Clouds
1:53 AM 63.0 °F 48.9 °F 60% 30.20 in 10.0 mi East 5.8 mph - N/A   Partly Cloudy
2:53 AM 62.1 °F 48.9 °F 62% 30.19 in 10.0 mi East 6.9 mph - N/A   Scattered Clouds
3:53 AM 61.0 °F 50.0 °F 67% 30.19 in 10.0 mi East 8.1 mph - N/A   Partly Cloudy
4:53 AM 61.0 °F 51.1 °F 70% 30.22 in 10.0 mi ENE 4.6 mph - N/A   Clear
5:53 AM 61.0 °F 51.1 °F 70% 30.23 in 10.0 mi East 6.9 mph - N/A   Partly Cloudy
6:53 AM 61.0 °F 52.0 °F 72% 30.24 in 10.0 mi East 6.9 mph - N/A   Partly Cloudy
7:53 AM 61.0 °F 53.1 °F 75% 30.28 in 10.0 mi East 4.6 mph - N/A   Scattered Clouds
8:53 AM 61.0 °F 53.1 °F 75% 30.31 in 10.0 mi East 5.8 mph - N/A   Scattered Clouds
9:53 AM 62.1 °F 54.0 °F 75% 30.32 in 10.0 mi East 6.9 mph - N/A   Overcast
10:53 AM 63.0 °F 55.9 °F 78% 30.32 in 10.0 mi East 6.9 mph - 0.00 in   Overcast
11:00 AM 62.6 °F 55.4 °F 77% 30.34 in 10.0 mi East 8.1 mph - N/A   Overcast
11:12 AM 62.6 °F 55.4 °F 77% 30.34 in 10.0 mi East 6.9 mph - N/A   Overcast
11:53 AM 64.0 °F 57.0 °F 78% 30.31 in 10.0 mi East 6.9 mph - N/A   Overcast
12:53 PM 68.0 °F 59.0 °F 73% 30.28 in 10.0 mi SE 6.9 mph - N/A   Mostly Cloudy
1:53 PM 70.0 °F 60.1 °F 71% 30.27 in 10.0 mi South 8.1 mph - N/A   Scattered Clouds
2:04 PM 69.8 °F 60.8 °F 73% 30.29 in 10.0 mi SSE 6.9 mph - N/A   Mostly Cloudy
2:45 PM 71.6 °F 60.8 °F 69% 30.28 in 10.0 mi ESE 6.9 mph - N/A   Mostly Cloudy
2:53 PM 72.0 °F 61.0 °F 68% 30.25 in 10.0 mi SSE 6.9 mph - N/A   Mostly Cloudy
3:53 PM 71.1 °F 61.0 °F 70% 30.23 in 10.0 mi ESE 6.9 mph - N/A   Overcast
4:53 PM 70.0 °F 62.1 °F 76% 30.21 in 10.0 mi ESE 4.6 mph - N/A   Overcast
5:40 PM 69.8 °F 60.8 °F 73% 30.24 in 10.0 mi East 9.2 mph - N/A   Mostly Cloudy
5:53 PM 69.1 °F 61.0 °F 75% 30.21 in 10.0 mi East 10.4 mph - N/A   Mostly Cloudy
6:05 PM 68.0 °F 60.8 °F 78% 30.24 in 10.0 mi East 9.2 mph - N/A   Overcast
6:53 PM 68.0 °F 61.0 °F 78% 30.21 in 10.0 mi East 9.2 mph - N/A   Scattered Clouds
7:53 PM 68.0 °F 61.0 °F 78% 30.20 in 10.0 mi ENE 6.9 mph - N/A   Overcast
8:53 PM 66.9 °F 61.0 °F 81% 30.21 in 10.0 mi ENE 5.8 mph - N/A   Partly Cloudy
9:53 PM 66.0 °F 60.1 °F 81% 30.22 in 10.0 mi ENE 8.1 mph - N/A   Overcast
10:53 PM 66.0 °F 60.1 °F 81% 30.22 in 10.0 mi East 9.2 mph - N/A   Overcast
11:53 PM 64.9 °F 60.1 °F 84% 30.22 in 10.0 mi East 9.2 mph - 0.00 in Rain Light Rain